Погода в Яксе

Погода в Яксе : погода сейчас, прогноз погоды и архив. Всё, что Вы хотите узнать о погоде в Яксе!

Поиск расширенной информации на нашем сайте:

Другие новости

Новости СМИ2

Главная страница сайта

Новости сайта

03.07.2017

Напоминаем, что на нашем специализированном сайте Метеоцентр.Азия вы можете получить высокодетализированные автоматические прогнозы погоды по пунктам России, СНГ и мира в авиационном формате (включающие направление и скорость ветра, видимость, явления погоды, количество и форму облачности, нижнюю и верхнюю границу облачности).

Рекомендуем: Очень выгодно - історія Дніпропетровська - честные цены!

Погода в Яксе - сегодня

Время (UTC), дата Ветер
(°,м/с) 
Видим.   Явления Облачность Т
(°С)
Тd
(°С)
f(%) Тe
(°С)
Pmin
(гПа)
dP
(гПа)
Po
(мм)
O2
(г/м3)
Тmin Tmax R s Состояние
почвы
03 20.10.17 350 (С) 5-11{12}  4000 м  слаб. снег  10/10 270 м 
[Frnb|Ns]
-0.4 -0.7 98 -3  995.2  2.7  734  296  -0.4       
06 20.10.17 350 (С) 5{12}  4000 м  слаб. снег  10/10 270 м 
[Frnb|Ns]
-1.4 -1.9 96 -5  998  2.8  736  298  -1.4         
09 20.10.17 340 (С) 4{12}  4000 м  слаб. ливневой снег  10/8 360 м кучево-дожд., средняя 
[Cb cap|As op]
-1.1 -2.6 90 -4  1000.5  2.5  738  299           
12 20.10.17 340 (С) 3{11}  10 км  {ливн. осадки, снег}  9/8 570 м кучево-дожд., средняя 
[Cb cap|Ac trans]
-1.2 -3.8 82 -3  1003.4  2.8  740  300           
15 20.10.17 350 (С) 10 км  в посл. час ливневой снег  9/9 870 м кучево-дожд. 
[Cb cap]
-1.5 -4.4 81 -3  1005.1  1.6  742  301    -0.4     
18 20.10.17 330 (СЗ) 4000 м  слаб. ливневой снег  10/10 480 м кучево-дожд. 
[Cb cap]
-1.6 -4.9 78 -4  1005.7  0.6  742  301           
21 20.10.17 310 (СЗ) 4000 м  слаб. ливневой снег  9/9 480 м кучево-дожд. 
[Cb cap]
-1.6 -4.2 82 -4  1006.1  0.4  742  301           
00 21.10.17 300 (СЗ) 10 км  {ливн. осадки}  10/10 870 м 
[Sc]
-1.8 -5.6 75 -4  1006.1  742  302           
03 21.10.17 300 (СЗ) 10 км    9/9 900 м 
[Sc]
-2.1 -3.9 87 -4  1005.9  -0.2  742  302  -2.1    0.0  равномерный
сухой снег
100% 
06 21.10.17 300 (СЗ) 10 км  в посл. час ливневой снег  9/3 600 м кучево-дожд., средняя 
[Cb cap|Ac trans]
-1.6 -4.2 82 -4  1005.8  -0.1  742  301           
09 21.10.17 300 (СЗ) 10 км  в посл. час ливневой снег  9/5 600 м кучево-дожд., средняя 
[Cb cap|Ac trans]
-0.8 -3.5 82 -3  1005.4  -0.3  742  300           
12 21.10.17 280 (З) 4000 м  слаб. ливневой снег  9/9 540 м кучево-дожд. 
[Cb cap]
-1.1 -3.1 86 -2  1005  -0.4  742  300           
15 21.10.17 270 (З) 4000 м  слаб. ливневой снег  9/9 480 м кучево-дожд. 
[Cb cap]
-2.4 -3.3 94 -3  1005.1  -0.1  742  302    -0.5  0.7     
18 21.10.17 280 (З) 10 км  {ливн. осадки}  10/10 750 м 
[Sc]
-2 -3.4 90 -3  1004.8  -0.2  741  301           
21 21.10.17 270 (З) 10 км    10/10 840 м 
[Sc]
-2.1 -3.3 91 -3  1004.8  741  301           
00 22.10.17 280 (З) 10 км    10/10 870 м 
[Sc]
-2.2 -3.3 92 -3  1005  0.2  742  302           
03 22.10.17 260 (З) 10 км    10/10 900 м 
[Sc]
-2.2 -4 87 -2  1005.5  0.5  742  302  -2.4    0.0  равномерный
сухой снег
100% 
06 22.10.17 300 (СЗ) 10 км    10/10 900 м 
[Sc]
-1.7 -3.5 87 -3  1006.5  743  301           
09 22.10.17 300 (СЗ) 10 км    10/10 960 м 
[Sc]
-0.9 -6 68 -2  1007.6  1.2  744  301           
12 22.10.17 310 (СЗ) 10 км    10/10 1200 м 
[Sc]
-0.9 -7.5 61 -3  1008.7  744  302           
15 22.10.17 270 (З) 10 км    10/0 средняя 
[Ac As]
-1.6 -6.8 68 -3  1010  1.2  745  303    -0.8       
18 22.10.17 270 (З) 10 км    10/0 средняя 
[Ac As]
-2 -6.1 73 -3  1011  746  303           
21 22.10.17 290 (З) 10 км    10/0 средняя 
[Ac und]
-1.9 -6.3 72 -3  1011.9  0.9  747  304           
00 23.10.17 310 (СЗ) 10 км    10/0 средняя 
[Ac und]
-2 -6.3 72 -1  1012.8  0.9  747  304           
03 23.10.17 310 (СЗ) 10 км    10/0 средняя 
[Ac und]
-2.3 -5 82 -3  1013.8  748  305  -2.3      равномерный
сухой снег
100% 
Время (UTC), дата Ветер
(°,м/с) 
Видим.   Явления Облачность Т
(°С)
Тd
(°С)
f(%) Тe
(°С)
Pmin
(гПа)
dP
(гПа)
Po
(мм)
O2
(г/м3)
Тmin Tmax R s Состояние
почвы

Для получения пояснительной информации подведите курсор к названию столбца.

ПОГОДА в Яксе - архив

Всё, что Вы хотите узнать о погоде в Яксе - удобно и подробно!

Выберите нужную дату (начиная с 1 января 2015* года) и нажмите кнопку "Найти".
Будут отображены архивные сводки погоды по пункту Якса, начиная с указанной даты.


Отображать данные в формате CSV (для использования в таблицах Excel)


Внимание! Наш архив погоды предназначен исключительно для личного некоммерческого использования в познавательных целях. Если Вам необходимы официальные справки о состоянии погоды (для производственных, юридических, коммерческих и т.п. целей), обращайтесь в органы Росгидромета.

*Примечание: данная дата относится к архиву по метеостанциям СССР (Россия, СНГ, Балтия).
Архив по метеостанциям Зарубежной Европы и Азии (кроме Китая) хранится 10 дней, по другим регионам земного шара (Китай, Африка, Америка, Австралия, Океания) - 1 день.

Якса - район местоположения метеостанции


Название, широта, долгота, высота метеостанции:
Якса 61.8°ш. 56.8°д. 130 м над ур. моря [Российская Федерация]

Дополнительная информация

В oтличие oт бoльшинства пoгoдных сайтoв мы публикуем пoдрoбную метеoинфoрмацию в детальнoм прoфессиoнальнoм фoрмате.

Характеристики температуры и влажнoсти вoздуха измеряются на высoте 2 м в тени вдали oт зданий и деревьев.
Скoрoсть ветра измеряется на высoте 10 м (на урoвне рoста челoвека скoрoсть ветра ниже в 1.5-2 раза). Если метеoстанция нахoдится в гoрoде или в лесу, тo скoрoсть ветра занижена на 2-4 м/с пo сравнению с oткрытым местoм. Скoрoсть ветра над акватoриями крупных рек и oзёр, а также на вершинах хoлмoв на 2-5 м/с выше, чем в oбычных услoвиях.
Атмoсфернoе давление в разных тoчках местнoсти мoжет значительнo oтличаться oт давления на метеoстанции, в зависимoсти oт услoвий рельефа (при пoдъёме на 10 м давление пoнижается примернo на 1 мм рт.ст.).